Tiempo cada hora Muri

Hoy, 28 Octubre, Miércoles

Tiempo Temperatura Precipitaciones Viento Presión Humedad
00:00 +8°C° 0 mm 2 mps 710 mmHg 68%
01:00 +8°C° 0.1 mm 2 mps 710 mmHg 74%
02:00 +8°C° 0.1 mm 2 mps 710 mmHg 80%
03:00 +7°C° 0.1 mm 2 mps 710 mmHg 85%
04:00 +7°C° 0.4 mm 2 mps 710 mmHg 88%
05:00 +8°C° 0.4 mm 2 mps 710 mmHg 91%
06:00 +8°C° 0.4 mm 2 mps 710 mmHg 94%
07:00 +9°C° 0.3 mm 2 mps 711 mmHg 93%
08:00 +10°C° 0.3 mm 2 mps 712 mmHg 92%
09:00 +11°C° 0.3 mm 3 mps 712 mmHg 91%
10:00 +11°C° 0.1 mm 3 mps 712 mmHg 88%
11:00 +12°C° 0.1 mm 3 mps 712 mmHg 85%
12:00 +13°C° 0.1 mm 4 mps 712 mmHg 81%
13:00 +13°C° 0.1 mm 4 mps 712 mmHg 80%
14:00 +13°C° 0.1 mm 4 mps 712 mmHg 78%
15:00 +13°C° 0.1 mm 3 mps 712 mmHg 76%
16:00 +12°C° 0 mm 3 mps 712 mmHg 78%
17:00 +11°C° 0 mm 3 mps 713 mmHg 81%
18:00 +10°C° 0 mm 2 mps 713 mmHg 84%
19:00 +10°C° 0.1 mm 3 mps 713 mmHg 85%
20:00 +10°C° 0.1 mm 3 mps 714 mmHg 87%
21:00 +10°C° 0.1 mm 3 mps 714 mmHg 88%
22:00 +10°C° 0 mm 3 mps 714 mmHg 88%
23:00 +9°C° 0 mm 3 mps 714 mmHg 87%

Mañana, 29 Octubre, Jueves

Tiempo Temperatura Precipitaciones Viento Presión Humedad
00:00 +9°C° 0 mm 3 mps 714 mmHg 87%
01:00 +9°C° 0.1 mm 3 mps 714 mmHg 88%
02:00 +8°C° 0.1 mm 4 mps 714 mmHg 88%
03:00 +8°C° 0.1 mm 4 mps 714 mmHg 89%
04:00 +8°C° 0.5 mm 4 mps 714 mmHg 91%
05:00 +8°C° 0.5 mm 4 mps 715 mmHg 92%
06:00 +9°C° 0.5 mm 3 mps 715 mmHg 94%
07:00 +9°C° 0.6 mm 3 mps 716 mmHg 94%
08:00 +9°C° 0.6 mm 3 mps 716 mmHg 94%
09:00 +9°C° 0.6 mm 3 mps 717 mmHg 94%
10:00 +10°C° 0.1 mm 3 mps 717 mmHg 92%
11:00 +10°C° 0.1 mm 3 mps 717 mmHg 90%
12:00 +11°C° 0.1 mm 3 mps 717 mmHg 88%
13:00 +11°C° 0 mm 3 mps 717 mmHg 87%
14:00 +12°C° 0 mm 2 mps 717 mmHg 87%
15:00 +12°C° 0 mm 2 mps 717 mmHg 87%
16:00 +12°C° 0 mm 2 mps 717 mmHg 89%
17:00 +11°C° 0 mm 1 mps 718 mmHg 91%
18:00 +10°C° 0 mm 1 mps 718 mmHg 93%
19:00 +10°C° 0 mm 1 mps 718 mmHg 92%
20:00 +10°C° 0 mm 1 mps 718 mmHg 92%
21:00 +10°C° 0 mm 1 mps 719 mmHg 91%
22:00 +10°C° 0 mm 1 mps 719 mmHg 90%
23:00 +10°C° 0 mm 1 mps 718 mmHg 90%

Pasado mañana, 30 Octubre, Viernes

Tiempo Temperatura Precipitaciones Viento Presión Humedad
00:00 +10°C° 0 mm 1 mps 718 mmHg 89%
01:00 +9°C° 0 mm 1 mps 718 mmHg 89%
02:00 +9°C° 0 mm 1 mps 718 mmHg 90%
03:00 +8°C° 0 mm 1 mps 718 mmHg 90%
04:00 +8°C° 0 mm 1 mps 718 mmHg 89%
05:00 +8°C° 0 mm 1 mps 718 mmHg 89%
06:00 +8°C° 0 mm 1 mps 718 mmHg 88%
07:00 +10°C° 0 mm 1 mps 718 mmHg 84%
08:00 +10°C° 0 mm 0 mps 718 mmHg 80%
09:00 +12°C° 0 mm 0 mps 719 mmHg 76%
10:00 +13°C° 0 mm 0 mps 719 mmHg 72%
11:00 +14°C° 0 mm 0 mps 719 mmHg 69%
12:00 +18°C° 0 mm 1 mps 719 mmHg 65%
13:00 +16°C° 0 mm 1 mps 718 mmHg 70%
14:00 +15°C° 0 mm 0 mps 718 mmHg 74%
15:00 +14°C° 0 mm 0 mps 718 mmHg 78%
16:00 +13°C° 0 mm 0 mps 718 mmHg 82%
17:00 +12°C° 0 mm 1 mps 718 mmHg 87%
18:00 +10°C° 0 mm 1 mps 718 mmHg 91%
19:00 +10°C° 0 mm 1 mps 718 mmHg 90%
20:00 +10°C° 0 mm 1 mps 718 mmHg 89%
21:00 +10°C° 0 mm 1 mps 718 mmHg 88%
22:00 +10°C° 0 mm 1 mps 717 mmHg 86%
23:00 +9°C° 0 mm 0 mps 717 mmHg 85%

31 Octubre, Sábado

Tiempo Temperatura Precipitaciones Viento Presión Humedad
00:00 +8°C° 0 mm 0 mps 717 mmHg 83%
01:00 +8°C° 0 mm 0 mps 717 mmHg 82%
02:00 +8°C° 0 mm 0 mps 717 mmHg 81%
03:00 +8°C° 0 mm 0 mps 716 mmHg 80%
04:00 +9°C° 0 mm 1 mps 716 mmHg 79%
05:00 +9°C° 0 mm 1 mps 716 mmHg 78%
06:00 +9°C° 0 mm 1 mps 716 mmHg 77%
07:00 +10°C° 0 mm 1 mps 716 mmHg 75%
08:00 +12°C° 0 mm 1 mps 716 mmHg 72%
09:00 +13°C° 0 mm 0 mps 717 mmHg 70%
10:00 +15°C° 0 mm 1 mps 717 mmHg 67%
11:00 +18°C° 0 mm 1 mps 717 mmHg 63%
12:00 +19°C° 0 mm 1 mps 717 mmHg 60%
13:00 +18°C° 0 mm 1 mps 716 mmHg 66%
14:00 +16°C° 0 mm 0 mps 716 mmHg 71%
15:00 +15°C° 0 mm 0 mps 716 mmHg 77%
16:00 +14°C° 0 mm 0 mps 716 mmHg 79%
17:00 +13°C° 0 mm 1 mps 716 mmHg 80%
18:00 +12°C° 0 mm 1 mps 716 mmHg 82%
19:00 +11°C° 0 mm 1 mps 716 mmHg 80%
20:00 +11°C° 0 mm 1 mps 716 mmHg 79%
21:00 +11°C° 0 mm 1 mps 716 mmHg 78%
22:00 +10°C° 0 mm 1 mps 716 mmHg 77%
23:00 +10°C° 0 mm 1 mps 716 mmHg 76%

1 Noviembre, Domingo

Tiempo Temperatura Precipitaciones Viento Presión Humedad
00:00 +10°C° 0 mm 1 mps 716 mmHg 75%
01:00 +10°C° 0 mm 1 mps 716 mmHg 76%
02:00 +10°C° 0 mm 1 mps 716 mmHg 76%
03:00 +9°C° 0 mm 1 mps 716 mmHg 76%
04:00 +9°C° 0 mm 1 mps 716 mmHg 76%
05:00 +9°C° 0 mm 1 mps 716 mmHg 76%
06:00 +9°C° 0 mm 1 mps 716 mmHg 76%
07:00 +11°C° 0 mm 1 mps 716 mmHg 73%
08:00 +13°C° 0 mm 1 mps 716 mmHg 70%
09:00 +14°C° 0 mm 0 mps 716 mmHg 66%
10:00 +16°C° 0 mm 1 mps 716 mmHg 63%
11:00 +18°C° 0 mm 1 mps 716 mmHg 60%
12:00 +19°C° 0 mm 1 mps 716 mmHg 57%
13:00 +19°C° 0 mm 1 mps 716 mmHg 62%
14:00 +16°C° 0 mm 0 mps 715 mmHg 68%
15:00 +15°C° 0 mm 0 mps 715 mmHg 74%
16:00 +14°C° 0 mm 0 mps 715 mmHg 75%
17:00 +14°C° 0 mm 1 mps 715 mmHg 77%
18:00 +12°C° 0 mm 1 mps 715 mmHg 79%
19:00 +12°C° 0 mm 1 mps 715 mmHg 76%
20:00 +12°C° 0 mm 1 mps 715 mmHg 74%
21:00 +11°C° 0 mm 1 mps 715 mmHg 72%
22:00 +11°C° 0 mm 1 mps 715 mmHg 71%
23:00 +11°C° 0 mm 1 mps 715 mmHg 70%

2 Noviembre, Lunes

Tiempo Temperatura Precipitaciones Viento Presión Humedad
00:00 +11°C° 0 mm 1 mps 714 mmHg 69%
01:00 +11°C° 0 mm 1 mps 714 mmHg 68%
02:00 +11°C° 0 mm 1 mps 714 mmHg 67%
03:00 +11°C° 0 mm 1 mps 714 mmHg 66%
04:00 +11°C° 0 mm 1 mps 714 mmHg 65%
05:00 +11°C° 0 mm 1 mps 714 mmHg 64%
06:00 +11°C° 0 mm 1 mps 714 mmHg 63%
07:00 +13°C° 0 mm 1 mps 714 mmHg 62%
08:00 +14°C° 0 mm 1 mps 714 mmHg 60%
09:00 +15°C° 0 mm 0 mps 714 mmHg 59%
10:00 +18°C° 0 mm 1 mps 714 mmHg 57%
11:00 +19°C° 0 mm 1 mps 714 mmHg 55%
12:00 +20°C° 0 mm 1 mps 714 mmHg 53%
13:00 +17°C° 0 mm 0 mps 714 mmHg 59%
14:00 +16°C° 0 mm 0 mps 713 mmHg 65%
15:00 +16°C° 0 mm 0 mps 713 mmHg 71%
16:00 +14°C° 0 mm 0 mps 713 mmHg 73%
17:00 +14°C° 0 mm 1 mps 713 mmHg 74%
18:00 +12°C° 0 mm 1 mps 713 mmHg 76%
19:00 +12°C° 0 mm 1 mps 713 mmHg 76%
20:00 +12°C° 0 mm 1 mps 713 mmHg 76%
21:00 +11°C° 0 mm 1 mps 714 mmHg 76%
22:00 +11°C° 0 mm 1 mps 714 mmHg 77%
23:00 +11°C° 0 mm 1 mps 714 mmHg 79%
Mostrar más

Necesitamos Su Consentimiento

Meteoprog y nuestros Proveedores de Servicios pueden almacenar y acceder a sus datos personales como cookies, identificadores de dispositivo u otras tecnologías similares de su dispositivo y procesar dichos datos para personalizar contenido y anuncios, además de ofrecer funciones de redes sociales y analizar el tráfico.

  • Almacenar y/o acceder a información en su dispositivo

    Se puede almacenar o acceder a cookies, identificadores de dispositivo u otra información de su dispositivo para los fines anteriormente indicados.

  • Anuncios y contenido personalizados, medición de anuncios y contenido, percepciones del público, y desarrollo de productos

    Los anuncios y el contenido pueden personalizarse en base a su perfil. Se pueden añadir más datos para personalizar mejor los anuncios y contenidos. Se puede medir el rendimiento de los anuncios y contenidos. Se puede obtener la percepción sobre el público que ha visto los anuncios y contenidos. Dichos datos pueden usarse para desarrollar o mejorar la experiencia del usuario, sistemas y software.

Al hacer clic en ‘Estoy De Acuerdo’ usted permitirá el uso de las cookies, identificadores de dispositivo, balizas web u otras tecnologías similares indicadas. Su configuración puede cambiarse desde el navegador de su dispositivo.

Para ciertos fines, los intereses legítimos pueden ser considerados por encima del consentimiento. Puede leer más sobre ello en nuestra Política de Privacidad y Cookies.